QPF
0.17 0.18 0.20 0.32 0.41 0.31 0.27 0.23 0.14 0.05 0.02 0.00 0.00 0.00 0.00 0.00 0.00 0.00 0.00 0.00 0.00 0.00 0.00 0.00 0.00 0.00 0.00 0.00 0.00 0.00 0.00 0.00 0.00 0.00 0.00 0.00 0.00 0.01
0.15 0.18 0.18 0.23 0.36 0.40 0.34 0.29 0.22 0.12 0.04 0.01 0.01 0.01 0.00 0.00 0.00 0.00 0.00 0.00 0.00 0.00 0.00 0.00 0.00 0.00 0.00 0.00 0.00 0.00 0.00 0.00 0.00 0.00 0.00 0.00 0.00 0.01
0.07 0.10 0.14 0.20 0.24 0.30 0.34 0.33 0.31 0.23 0.13 0.06 0.02 0.01 0.00 0.00 0.00 0.00 0.00 0.00 0.00 0.00 0.00 0.00 0.00 0.00 0.00 0.00 0.00 0.00 0.00 0.00 0.00 0.00 0.00 0.00 0.00 0.00
0.02 0.04 0.07 0.13 0.17 0.21 0.27 0.30 0.31 0.30 0.25 0.17 0.09 0.04 0.02 0.02 0.01 0.00 0.00 0.00 0.00 0.00 0.00 0.00 0.00 0.00 0.00 0.00 0.00 0.00 0.00 0.00 0.00 0.00 0.00 0.00 0.00 0.00
0.00 0.01 0.03 0.06 0.10 0.16 0.22 0.26 0.26 0.27 0.26 0.21 0.16 0.12 0.09 0.05 0.02 0.00 0.00 0.00 0.00 0.00 0.00 0.00 0.00 0.00 0.00 0.00 0.00 0.00 0.00 0.00 0.00 0.00 0.00 0.00 0.00 0.00
0.00 0.00 0.01 0.03 0.08 0.14 0.19 0.22 0.23 0.23 0.23 0.21 0.19 0.15 0.15 0.10 0.04 0.01 0.00 0.00 0.00 0.00 0.00 0.00 0.00 0.00 0.00 0.00 0.00 0.00 0.00 0.00 0.00 0.00 0.00 0.00 0.00 0.00
0.00 0.00 0.01 0.03 0.07 0.12 0.15 0.18 0.21 0.24 0.24 0.22 0.19 0.14 0.11 0.09 0.03 0.01 0.00 0.00 0.00 0.00 0.00 0.00 0.00 0.00 0.00 0.00 0.00 0.00 0.00 0.00 0.00 0.00 0.00 0.00 0.00 0.00
0.00 0.00 0.00 0.01 0.04 0.08 0.14 0.17 0.20 0.21 0.22 0.20 0.17 0.13 0.09 0.07 0.05 0.03 0.01 0.00 0.00 0.00 0.00 0.00 0.00 0.00 0.00 0.00 0.00 0.00 0.00 0.00 0.00 0.00 0.00 0.00 0.00 0.00
0.00 0.00 0.00 0.01 0.01 0.03 0.07 0.13 0.15 0.17 0.16 0.15 0.11 0.08 0.07 0.06 0.06 0.04 0.02 0.00 0.00 0.00 0.00 0.00 0.00 0.00 0.00 0.00 0.00 0.00 0.00 0.00 0.00 0.00 0.00 0.00 0.00 0.00
0.01 0.01 0.00 0.00 0.01 0.02 0.03 0.04 0.06 0.09 0.10 0.09 0.08 0.07 0.07 0.08 0.07 0.07 0.07 0.03 0.01 0.00 0.00 0.00 0.00 0.00 0.00 0.00 0.00 0.00 0.00 0.00 0.00 0.00 0.00 0.00 0.00 0.00
0.02 0.02 0.01 0.01 0.02 0.04 0.04 0.03 0.02 0.04 0.07 0.10 0.11 0.11 0.11 0.12 0.10 0.08 0.07 0.04 0.01 0.00 0.00 0.00 0.00 0.00 0.00 0.00 0.00 0.00 0.00 0.00 0.00 0.00 0.00 0.00 0.00 0.00
0.06 0.03 0.03 0.03 0.04 0.07 0.07 0.05 0.02 0.03 0.08 0.10 0.10 0.08 0.07 0.06 0.06 0.06 0.06 0.06 0.03 0.01 0.01 0.00 0.00 0.00 0.00 0.00 0.00 0.00 0.00 0.00 0.00 0.00 0.00 0.00 0.00 0.00
0.06 0.04 0.03 0.06 0.09 0.07 0.06 0.04 0.03 0.04 0.05 0.05 0.04 0.03 0.03 0.03 0.03 0.04 0.05 0.06 0.05 0.03 0.02 0.01 0.00 0.00 0.00 0.00 0.00 0.00 0.00 0.00 0.00 0.00 0.00 0.00 0.00 0.00
0.03 0.04 0.06 0.14 0.15 0.08 0.04 0.03 0.03 0.03 0.02 0.01 0.01 0.01 0.00 0.00 0.01 0.02 0.04 0.05 0.06 0.06 0.06 0.05 0.02 0.01 0.01 0.00 0.00 0.00 0.00 0.00 0.00 0.00 0.00 0.00 0.00 0.00
0.03 0.08 0.13 0.15 0.11 0.07 0.05 0.04 0.02 0.02 0.01 0.01 0.00 0.00 0.00 0.00 0.00 0.02 0.04 0.06 0.08 0.10 0.12 0.12 0.10 0.07 0.04 0.02 0.01 0.00 0.00 0.00 0.00 0.00 0.00 0.00 0.00 0.00
0.04 0.09 0.12 0.09 0.06 0.07 0.06 0.03 0.02 0.02 0.02 0.01 0.00 0.00 0.00 0.00 0.00 0.01 0.02 0.04 0.07 0.11 0.18 0.23 0.23 0.20 0.17 0.13 0.08 0.04 0.02 0.01 0.01 0.01 0.00 0.00 0.00 0.00
0.06 0.08 0.08 0.07 0.08 0.07 0.04 0.03 0.02 0.03 0.03 0.02 0.00 0.00 0.00 0.00 0.00 0.00 0.00 0.01 0.02 0.03 0.08 0.15 0.23 0.26 0.26 0.24 0.21 0.16 0.11 0.08 0.06 0.04 0.03 0.02 0.01 0.01
0.14 0.17 0.18 0.18 0.17 0.13 0.07 0.04 0.02 0.01 0.01 0.00 0.00 0.00 0.00 0.01 0.01 0.00 0.00 0.00 0.01 0.01 0.02 0.03 0.07 0.12 0.17 0.19 0.18 0.17 0.16 0.15 0.14 0.13 0.10 0.08 0.07 0.06
0.23 0.29 0.30 0.24 0.21 0.18 0.10 0.05 0.02 0.01 0.00 0.00 0.00 0.00 0.00 0.00 0.00 0.00 0.00 0.00 0.00 0.00 0.00 0.01 0.02 0.05 0.09 0.10 0.12 0.16 0.18 0.19 0.23 0.22 0.19 0.17 0.14 0.14
0.29 0.31 0.28 0.21 0.15 0.11 0.06 0.04 0.02 0.01 0.01 0.00 0.00 0.00 0.00 0.00 0.00 0.00 0.00 0.00 0.00 0.00 0.00 0.00 0.01 0.02 0.04 0.06 0.07 0.08 0.12 0.15 0.17 0.17 0.17 0.17 0.17 0.18
0.14 0.12 0.10 0.06 0.03 0.02 0.01 0.01 0.00 0.00 0.00 0.00 0.00 0.00 0.00 0.00 0.00 0.00 0.00 0.00 0.00 0.00 0.00 0.00 0.01 0.02 0.02 0.04 0.05 0.03 0.04 0.08 0.11 0.11 0.12 0.14 0.16 0.17
0.03 0.01 0.01 0.00 0.00 0.00 0.00 0.00 0.00 0.00 0.00 0.00 0.00 0.00 0.00 0.00 0.00 0.00 0.00 0.00 0.00 0.01 0.01 0.00 0.00 0.00 0.01 0.02 0.02 0.02 0.02 0.04 0.07 0.11 0.12 0.12 0.12 0.11
0.01 0.00 0.00 0.00 0.00 0.00 0.00 0.00 0.00 0.00 0.00 0.00 0.00 0.00 0.00 0.01 0.01 0.01 0.01 0.01 0.01 0.01 0.01 0.01 0.01 0.01 0.01 0.02 0.02 0.02 0.02 0.02 0.04 0.06 0.11 0.17 0.15 0.10
MSLP
1013.25 1013.65 1014.12 1014.63 1015.14 1015.61 1016.01 1016.30 1016.48 1016.57 1016.58 1016.56 1016.53 1016.55 1016.61 1016.73 1016.90 1017.11 1017.32 1017.52 1017.68 1017.79 1017.85 1017.86 1017.84 1017.81 1017.77 1017.75 1017.75 1017.76 1017.77 1017.77 1017.74 1017.65 1017.49 1017.25 1016.92 1016.52
1013.01 1013.31 1013.68 1014.10 1014.54 1014.95 1015.32 1015.62 1015.85 1016.00 1016.10 1016.16 1016.21 1016.29 1016.39 1016.53 1016.72 1016.94 1017.17 1017.39 1017.59 1017.74 1017.84 1017.90 1017.92 1017.91 1017.88 1017.85 1017.84 1017.84 1017.84 1017.85 1017.85 1017.81 1017.71 1017.54 1017.28 1016.94
1012.91 1013.12 1013.39 1013.70 1014.04 1014.39 1014.72 1015.03 1015.29 1015.51 1015.69 1015.84 1015.97 1016.10 1016.25 1016.41 1016.60 1016.81 1017.03 1017.25 1017.46 1017.64 1017.78 1017.87 1017.93 1017.94 1017.93 1017.90 1017.87 1017.85 1017.85 1017.85 1017.86 1017.85 1017.81 1017.71 1017.54 1017.30
1012.92 1013.05 1013.22 1013.43 1013.68 1013.95 1014.25 1014.55 1014.84 1015.12 1015.37 1015.60 1015.80 1015.99 1016.16 1016.33 1016.50 1016.69 1016.88 1017.08 1017.28 1017.47 1017.64 1017.77 1017.86 1017.90 1017.91 1017.89 1017.85 1017.81 1017.78 1017.76 1017.77 1017.78 1017.78 1017.75 1017.68 1017.54
1012.98 1013.06 1013.15 1013.28 1013.44 1013.65 1013.90 1014.18 1014.49 1014.81 1015.12 1015.41 1015.67 1015.89 1016.07 1016.23 1016.38 1016.53 1016.68 1016.85 1017.03 1017.22 1017.40 1017.56 1017.69 1017.77 1017.81 1017.80 1017.76 1017.70 1017.65 1017.61 1017.60 1017.61 1017.63 1017.66 1017.66 1017.62
1013.01 1013.06 1013.11 1013.18 1013.27 1013.42 1013.63 1013.89 1014.20 1014.54 1014.88 1015.20 1015.49 1015.73 1015.92 1016.06 1016.17 1016.28 1016.39 1016.52 1016.68 1016.86 1017.06 1017.25 1017.42 1017.54 1017.61 1017.63 1017.60 1017.54 1017.47 1017.41 1017.38 1017.38 1017.42 1017.47 1017.52 1017.55
1012.96 1013.01 1013.04 1013.06 1013.11 1013.21 1013.38 1013.61 1013.90 1014.24 1014.59 1014.92 1015.22 1015.46 1015.64 1015.76 1015.84 1015.90 1015.97 1016.07 1016.21 1016.39 1016.60 1016.82 1017.03 1017.20 1017.32 1017.37 1017.37 1017.33 1017.26 1017.20 1017.15 1017.15 1017.18 1017.24 1017.32 1017.40
1012.79 1012.85 1012.88 1012.88 1012.90 1012.96 1013.09 1013.29 1013.55 1013.86 1014.20 1014.53 1014.82 1015.05 1015.21 1015.31 1015.37 1015.41 1015.45 1015.53 1015.65 1015.83 1016.05 1016.30 1016.54 1016.76 1016.93 1017.03 1017.08 1017.07 1017.03 1016.98 1016.94 1016.94 1016.97 1017.04 1017.13 1017.22
1012.49 1012.57 1012.60 1012.60 1012.60 1012.64 1012.74 1012.90 1013.13 1013.41 1013.72 1014.02 1014.30 1014.51 1014.66 1014.75 1014.80 1014.82 1014.85 1014.92 1015.04 1015.22 1015.45 1015.71 1015.98 1016.24 1016.46 1016.62 1016.71 1016.76 1016.77 1016.76 1016.76 1016.78 1016.82 1016.90 1017.00 1017.10
1012.09 1012.18 1012.22 1012.23 1012.23 1012.26 1012.33 1012.46 1012.66 1012.91 1013.18 1013.46 1013.71 1013.91 1014.06 1014.15 1014.19 1014.22 1014.25 1014.32 1014.43 1014.61 1014.84 1015.11 1015.39 1015.67 1015.92 1016.13 1016.29 1016.39 1016.47 1016.53 1016.59 1016.65 1016.74 1016.84 1016.95 1017.06
1011.64 1011.74 1011.79 1011.81 1011.82 1011.84 1011.91 1012.03 1012.20 1012.42 1012.66 1012.91 1013.15 1013.34 1013.49 1013.59 1013.65 1013.69 1013.73 1013.80 1013.91 1014.07 1014.29 1014.54 1014.82 1015.09 1015.36 1015.59 1015.80 1015.97 1016.12 1016.26 1016.39 1016.53 1016.67 1016.82 1016.96 1017.08
1011.21 1011.30 1011.36 1011.39 1011.42 1011.47 1011.54 1011.66 1011.82 1012.02 1012.24 1012.47 1012.69 1012.88 1013.04 1013.15 1013.23 1013.28 1013.34 1013.41 1013.51 1013.65 1013.83 1014.05 1014.29 1014.54 1014.79 1015.03 1015.27 1015.49 1015.70 1015.91 1016.13 1016.34 1016.55 1016.76 1016.94 1017.09
1010.84 1010.92 1010.99 1011.04 1011.10 1011.18 1011.28 1011.40 1011.57 1011.76 1011.97 1012.19 1012.40 1012.59 1012.75 1012.87 1012.97 1013.04 1013.11 1013.18 1013.26 1013.37 1013.50 1013.66 1013.84 1014.04 1014.25 1014.47 1014.70 1014.95 1015.21 1015.48 1015.76 1016.04 1016.33 1016.59 1016.82 1017.01
1010.58 1010.64 1010.72 1010.81 1010.90 1011.02 1011.15 1011.30 1011.48 1011.67 1011.88 1012.09 1012.29 1012.47 1012.63 1012.76 1012.87 1012.95 1013.02 1013.08 1013.14 1013.21 1013.29 1013.38 1013.49 1013.61 1013.76 1013.94 1014.14 1014.38 1014.65 1014.95 1015.27 1015.61 1015.94 1016.24 1016.51 1016.73
1010.44 1010.50 1010.59 1010.70 1010.84 1011.00 1011.17 1011.35 1011.54 1011.74 1011.94 1012.14 1012.32 1012.49 1012.64 1012.77 1012.88 1012.96 1013.02 1013.07 1013.11 1013.14 1013.16 1013.19 1013.22 1013.27 1013.35 1013.46 1013.61 1013.81 1014.06 1014.36 1014.68 1015.03 1015.37 1015.70 1015.98 1016.22
1010.44 1010.48 1010.59 1010.73 1010.91 1011.11 1011.31 1011.52 1011.73 1011.93 1012.11 1012.29 1012.45 1012.60 1012.73 1012.84 1012.93 1013.01 1013.06 1013.10 1013.11 1013.11 1013.09 1013.06 1013.03 1013.01 1013.02 1013.05 1013.14 1013.29 1013.48 1013.74 1014.03 1014.35 1014.67 1014.98 1015.25 1015.47
1010.56 1010.61 1010.72 1010.89 1011.10 1011.32 1011.55 1011.78 1011.99 1012.17 1012.34 1012.49 1012.61 1012.72 1012.82 1012.90 1012.97 1013.03 1013.08 1013.10 1013.10 1013.08 1013.03 1012.97 1012.89 1012.82 1012.76 1012.74 1012.76 1012.83 1012.96 1013.14 1013.37 1013.62 1013.89 1014.14 1014.37 1014.55
1010.80 1010.86 1010.98 1011.17 1011.38 1011.62 1011.86 1012.08 1012.28 1012.44 1012.58 1012.68 1012.76 1012.82 1012.88 1012.92 1012.96 1013.00 1013.03 1013.04 1013.04 1013.01 1012.95 1012.87 1012.78 1012.68 1012.58 1012.51 1012.46 1012.47 1012.52 1012.62 1012.76 1012.92 1013.10 1013.28 1013.44 1013.57
1011.17 1011.23 1011.36 1011.54 1011.76 1011.99 1012.21 1012.41 1012.58 1012.71 1012.80 1012.85 1012.88 1012.89 1012.89 1012.89 1012.90 1012.90 1012.91 1012.92 1012.91 1012.88 1012.83 1012.76 1012.66 1012.55 1012.43 1012.32 1012.24 1012.18 1012.16 1012.18 1012.23 1012.31 1012.40 1012.49 1012.57 1012.65
1011.66 1011.72 1011.84 1012.01 1012.20 1012.40 1012.59 1012.76 1012.88 1012.96 1013.00 1013.00 1012.98 1012.93 1012.88 1012.83 1012.80 1012.77 1012.76 1012.75 1012.74 1012.71 1012.67 1012.60 1012.51 1012.40 1012.28 1012.16 1012.04 1011.95 1011.87 1011.82 1011.80 1011.80 1011.81 1011.83 1011.85 1011.87
1012.26 1012.32 1012.42 1012.55 1012.71 1012.86 1013.01 1013.12 1013.19 1013.22 1013.21 1013.16 1013.07 1012.98 1012.87 1012.78 1012.70 1012.64 1012.59 1012.56 1012.54 1012.51 1012.47 1012.41 1012.33 1012.22 1012.11 1011.98 1011.85 1011.73 1011.62 1011.53 1011.45 1011.40 1011.36 1011.33 1011.31 1011.30
1012.94 1012.99 1013.06 1013.15 1013.26 1013.36 1013.44 1013.50 1013.51 1013.49 1013.43 1013.33 1013.20 1013.05 1012.91 1012.77 1012.65 1012.55 1012.47 1012.40 1012.35 1012.30 1012.25 1012.18 1012.10 1012.00 1011.88 1011.75 1011.62 1011.49 1011.37 1011.27 1011.18 1011.10 1011.04 1011.00 1010.97 1010.96
1013.67 1013.70 1013.74 1013.78 1013.83 1013.86 1013.88 1013.88 1013.84 1013.77 1013.66 1013.52 1013.35 1013.18 1013.00 1012.82 1012.66 1012.52 1012.40 1012.29 1012.21 1012.12 1012.04 1011.95 1011.85 1011.74 1011.62 1011.50 1011.37 1011.24 1011.13 1011.03 1010.95 1010.89 1010.84 1010.82 1010.81 1010.82
Thickness
5680 5680 5680 5680 5680 5679 5678 5675 5672 5670 5674 5682 5686 5690 5691 5690 5689 5689 5690 5690 5690 5691 5691 5692 5693 5694 5695 5697 5699 5702 5704 5706 5709 5710 5712 5714 5716 5718
5677 5677 5677 5678 5679 5678 5677 5676 5674 5673 5674 5683 5687 5691 5691 5689 5688 5688 5688 5687 5687 5687 5688 5689 5689 5690 5692 5693 5695 5698 5701 5703 5704 5706 5707 5708 5710 5712
5674 5675 5675 5676 5677 5677 5676 5675 5674 5673 5673 5679 5684 5687 5688 5687 5686 5686 5685 5685 5685 5685 5685 5686 5686 5687 5688 5689 5691 5693 5696 5698 5700 5701 5702 5703 5704 5706
5671 5672 5673 5674 5674 5675 5674 5673 5672 5673 5672 5673 5677 5680 5683 5684 5684 5682 5683 5683 5683 5683 5683 5683 5683 5684 5684 5685 5686 5688 5690 5692 5694 5696 5696 5697 5698 5700
5668 5668 5669 5670 5670 5670 5670 5670 5670 5671 5671 5670 5671 5674 5677 5678 5677 5677 5678 5679 5680 5681 5680 5680 5680 5680 5681 5681 5682 5683 5685 5686 5688 5689 5690 5691 5692 5694
5664 5664 5665 5665 5665 5665 5665 5665 5666 5666 5667 5667 5666 5668 5670 5673 5672 5671 5672 5673 5676 5677 5677 5677 5677 5677 5677 5678 5679 5680 5680 5681 5682 5683 5683 5684 5685 5687
5658 5659 5659 5660 5661 5661 5660 5659 5659 5660 5661 5662 5661 5662 5664 5665 5667 5669 5670 5671 5671 5671 5672 5673 5673 5673 5674 5675 5676 5676 5676 5676 5676 5677 5677 5678 5679 5680
5653 5653 5654 5655 5656 5656 5656 5655 5654 5654 5655 5656 5656 5656 5659 5662 5665 5666 5666 5665 5665 5668 5668 5668 5669 5669 5670 5671 5672 5672 5671 5671 5671 5671 5671 5672 5673 5673
5650 5649 5650 5652 5652 5652 5651 5651 5650 5651 5651 5651 5651 5653 5655 5659 5661 5663 5663 5665 5668 5669 5666 5664 5663 5665 5667 5667 5667 5667 5666 5666 5665 5665 5665 5665 5666 5666
5647 5646 5646 5648 5650 5649 5647 5646 5646 5647 5648 5648 5650 5651 5653 5656 5659 5662 5663 5664 5666 5666 5665 5660 5660 5661 5664 5663 5663 5663 5662 5661 5660 5659 5659 5658 5658 5658
5643 5643 5644 5645 5648 5647 5644 5643 5643 5644 5645 5646 5647 5648 5650 5653 5655 5656 5657 5657 5658 5660 5661 5659 5658 5657 5658 5658 5659 5659 5658 5656 5654 5653 5652 5651 5651 5650
5638 5639 5641 5642 5645 5645 5642 5641 5640 5642 5643 5644 5644 5645 5646 5648 5651 5653 5654 5653 5653 5654 5657 5655 5653 5651 5651 5652 5653 5653 5652 5650 5648 5647 5645 5644 5643 5642
5632 5634 5636 5639 5642 5643 5642 5640 5641 5641 5640 5640 5639 5640 5641 5643 5645 5647 5648 5648 5648 5649 5651 5650 5648 5646 5647 5646 5643 5644 5644 5644 5642 5639 5638 5637 5636 5635
5627 5629 5631 5634 5636 5638 5637 5637 5637 5636 5634 5633 5633 5633 5634 5636 5637 5639 5640 5642 5643 5644 5644 5644 5642 5640 5639 5637 5636 5635 5635 5635 5633 5632 5631 5630 5629 5628
5620 5623 5625 5627 5628 5629 5630 5630 5629 5628 5627 5626 5626 5626 5628 5629 5630 5630 5631 5632 5634 5635 5635 5636 5635 5634 5632 5631 5630 5627 5625 5625 5625 5624 5622 5621 5620 5620
5609 5613 5616 5617 5618 5620 5620 5621 5621 5621 5621 5621 5621 5621 5622 5622 5622 5623 5623 5623 5624 5625 5626 5626 5626 5625 5624 5623 5622 5620 5618 5618 5617 5615 5614 5613 5613 5612
5598 5602 5605 5607 5609 5610 5611 5613 5614 5615 5615 5615 5616 5615 5616 5616 5616 5616 5616 5616 5615 5615 5615 5616 5615 5615 5616 5615 5614 5614 5612 5610 5609 5607 5605 5605 5606 5605
5591 5594 5598 5601 5603 5604 5605 5606 5608 5609 5610 5611 5611 5611 5611 5611 5610 5610 5610 5609 5609 5608 5607 5606 5605 5605 5605 5606 5607 5607 5605 5604 5602 5599 5598 5597 5599 5599
5587 5590 5594 5596 5599 5600 5601 5603 5604 5605 5606 5606 5606 5606 5605 5605 5604 5603 5602 5601 5600 5599 5598 5597 5596 5595 5596 5598 5601 5599 5598 5597 5593 5591 5590 5591 5593 5594
5585 5588 5590 5592 5594 5596 5597 5598 5599 5600 5601 5601 5601 5600 5599 5598 5596 5595 5593 5592 5590 5589 5587 5586 5586 5586 5587 5588 5590 5591 5588 5587 5586 5586 5585 5584 5584 5584
5582 5584 5586 5588 5589 5591 5592 5594 5594 5595 5595 5595 5594 5593 5592 5590 5588 5586 5584 5583 5581 5579 5577 5577 5577 5577 5576 5576 5578 5580 5578 5577 5577 5576 5576 5576 5576 5575
5580 5581 5582 5584 5585 5587 5588 5589 5590 5590 5590 5589 5587 5586 5584 5582 5580 5578 5576 5574 5572 5570 5569 5568 5567 5566 5565 5566 5567 5568 5567 5565 5563 5563 5562 5564 5566 5569
5578 5579 5580 5582 5583 5585 5586 5587 5587 5586 5585 5583 5582 5580 5578 5575 5573 5570 5568 5566 5563 5562 5560 5558 5556 5554 5553 5553 5553 5554 5554 5553 5550 5549 5548 5548 5550 5552